TimeCST,TemperatureF,Dew PointF,Humidity,Sea Level PressureIn,VisibilityMPH,Wind Direction,Wind SpeedMPH,Gust SpeedMPH,PrecipitationIn,Events,Conditions,WindDirDegrees,DateUTC
12:54 AM,32.0,25.0,75,30.29,10.0,South,8.1,-,N/A,,Clear,190,2012-12-13 06:54:00
1:54 AM,30.0,24.1,79,30.29,10.0,South,8.1,-,N/A,,Clear,190,2012-12-13 07:54:00
2:54 AM,28.9,24.1,82,30.30,10.0,South,6.9,-,N/A,,Clear,180,2012-12-13 08:54:00
3:54 AM,28.9,24.1,82,30.29,10.0,South,6.9,-,N/A,,Clear,170,2012-12-13 09:54:00
4:54 AM,28.9,24.1,82,30.29,10.0,South,9.2,-,N/A,,Clear,180,2012-12-13 10:54:00
5:54 AM,28.4,24.8,86,30.27,10.0,South,9.2,-,N/A,,Clear,180,2012-12-13 11:54:00
6:54 AM,30.0,24.1,79,30.28,10.0,South,12.7,-,N/A,,Clear,180,2012-12-13 12:54:00
7:54 AM,30.0,24.1,79,30.27,10.0,South,9.2,-,N/A,,Clear,180,2012-12-13 13:54:00
8:54 AM,34.0,25.0,70,30.28,10.0,South,13.8,-,N/A,,Clear,190,2012-12-13 14:54:00
9:54 AM,37.9,26.1,62,30.26,10.0,South,12.7,-,N/A,,Clear,190,2012-12-13 15:54:00
10:54 AM,44.1,25.0,47,30.24,10.0,SSW,20.7,26.5,N/A,,Clear,210,2012-12-13 16:54:00
11:54 AM,45.0,25.0,46,30.21,10.0,South,20.7,27.6,N/A,,Clear,190,2012-12-13 17:54:00
12:54 PM,46.9,26.1,44,30.19,10.0,SSW,17.3,24.2,N/A,,Clear,210,2012-12-13 18:54:00
1:54 PM,48.0,26.1,42,30.15,10.0,South,20.7,26.5,N/A,,Clear,190,2012-12-13 19:54:00
2:54 PM,46.9,27.0,46,30.14,10.0,South,20.7,25.3,N/A,,Clear,190,2012-12-13 20:54:00
3:54 PM,46.0,28.9,51,30.14,10.0,SSW,12.7,25.3,N/A,,Clear,200,2012-12-13 21:54:00
6:54 PM,39.2,30.2,70,30.13,10.0,SSW,10.4,-,N/A,,Clear,200,2012-12-14 00:54:00
7:54 PM,37.0,28.9,73,30.17,10.0,SSW,4.6,-,N/A,,Clear,200,2012-12-14 01:54:00
8:54 PM,34.0,28.0,79,30.18,10.0,South,5.8,-,N/A,,Clear,190,2012-12-14 02:54:00
9:54 PM,34.0,28.0,79,30.19,10.0,South,6.9,-,N/A,,Clear,190,2012-12-14 03:54:00
10:54 PM,34.0,27.0,75,30.18,10.0,South,6.9,-,N/A,,Clear,190,2012-12-14 04:54:00
11:54 PM,32.0,26.1,79,30.19,10.0,South,5.8,-,N/A,,Clear,190,2012-12-14 05:54:00